Location: Dzierzno
(50.6159°N, 19.2852°E)
Time: 03:19:29
(UTC+00:00)

Cosmos 2221 Rocket - Pass Details

Date: 18 November 2025
Orbit: 615 x 642 km, 82.5° (Epoch: 04 December)

Event Time Altitude Azimuth Distance (km) Brightness Sun altitude
Rises 15:22:13 0° 346° (NNW) 2,944 6.9 -5.0°
Reaches altitude 10° 15:24:30 10° 343° (NNW) 2,026 6.1 -5.3°
Maximum altitude 15:28:55 60° 264° (W) 723 4.3 -5.9°
Drops below altitude 10° 15:33:15 10° 185° (S) 1,992 6.6 -6.6°
Sets 15:35:29 0° 182° (S) 2,890 7.3 -6.9°
